Terug naar catalogus

COSMOS 839 DEB

ActiefLEO
NORAD 10613·DEBRIS·🇷🇺 Russia

Gelanceerd Jul 8, 1976 vanaf Plesetsk Cosmodrome

Loading…

Volgende Passages (komende 24 uur)

TLE

VersSource: Space-Track

Epoch: Sep 14, 2026, 09:17 UTC

1 10613U 76067AM  26257.38707673  .00000298  00000-0  77403-3 0  9993
2 10613  65.7987 237.9469 0692882 100.2941 267.6877 12.63155834300540

Volg COSMOS 839 DEB in realtime met AllMySat

Download on the App Store